No particular awareness of the weather is required.    There are no Weather-warnings


Meteo18 Weather Cam more information Meteo18 Weather Cam


Thunder radar more information blitzortung!


Rain radar more information rain snow radar


Visit our other weather sites:

Template documentation
and downloads

And another site



Weather Underground History page Text

Daily Summary for February 22, 2018 Units:  English    Metric   Both
« Previous Day
Next Day »
Daily Weekly Monthly Yearly Custom
  High: Low: Average:
Temperature: TemperatureC °F -2.3 °F 0.8 °F
Dew Point: DewpointC °F -5.8 °F -3.6 °F
Humidity: Humidity % 58 % 74 %
Wind Speed: WindSpeedKMH mph 1.4 mph 13.9 mph
Wind Gust: WindSpeedGustKMH mph - -
Wind:- - ESE
Pressure: PressurehPa in 1012.8 in -
Precipitation: 0.0 in    
Historical Graphs
 
 
Tabular Data for February 22, 2018
Time Temperature Dew Point Pressure Wind Wind Speed Wind Gust Humidity Rainfall Rate (Hourly)
TemperatureC °F DewpointC °F PressurehPa in Calm     Humidity % HourlyPrecipMM in
00:00 0.2 °F -1.6 °F 1016.8 in NNW 6.4 mph 19.3 mph 88 % 0.0 in
00:06 0.2 °F -1.6 °F 1016.8 in North 24.1 mph 24.1 mph 88 % 0.0 in
00:12 0.1 °F -1.7 °F 1016.8 in NE 13.0 mph 17.7 mph 88 % 0.0 in
00:18 0.1 °F -1.7 °F 1016.8 in NE 11.1 mph 25.7 mph 88 % 0.0 in
00:24 0.2 °F -1.7 °F 1016.8 in NW 1.4 mph 22.5 mph 87 % 0.0 in
00:30 0.1 °F -1.7 °F 1016.8 in NNE 16.3 mph 27.4 mph 88 % 0.0 in
00:36 0.1 °F -1.8 °F 1016.8 in NE 9.7 mph 20.9 mph 87 % 0.0 in
00:42 0.0 °F -1.9 °F 1016.8 in NNE 14.3 mph 19.3 mph 87 % 0.0 in
00:48 -0.1 °F -2.0 °F 1016.8 in NNE 11.1 mph 19.3 mph 87 % 0.0 in
00:54 -0.1 °F -2.0 °F 1016.5 in North 13.0 mph 19.3 mph 87 % 0.0 in
01:00 -0.1 °F -2.0 °F 1016.5 in NE 11.1 mph 14.5 mph 87 % 0.0 in
01:06 -0.1 °F -2.0 °F 1016.5 in NNE 7.9 mph 17.7 mph 87 % 0.0 in
01:12 -0.1 °F -2.0 °F 1016.5 in NNW 20.9 mph 24.1 mph 87 % 0.0 in
01:18 -0.1 °F -2.2 °F 1016.5 in NNE 11.1 mph 22.5 mph 86 % 0.0 in
01:24 -0.2 °F -2.3 °F 1016.5 in NNE 9.7 mph 17.7 mph 86 % 0.0 in
01:30 -0.2 °F -2.1 °F 1016.1 in North 6.4 mph 20.9 mph 87 % 0.0 in
01:36 -0.2 °F -2.1 °F 1016.5 in NNE 9.7 mph 16.1 mph 87 % 0.0 in
01:42 -0.4 °F -2.3 °F 1016.1 in North 11.1 mph 19.3 mph 87 % 0.0 in
01:48 -0.4 °F -2.1 °F 1016.1 in NNE 11.1 mph 24.1 mph 88 % 0.0 in
01:54 -0.5 °F -2.2 °F 1016.1 in NNE 13.0 mph 24.1 mph 88 % 0.0 in
02:00 -0.6 °F -2.3 °F 1016.1 in NNE 9.7 mph 27.4 mph 88 % 0.0 in
02:06 -0.6 °F -2.3 °F 1016.1 in NE 14.3 mph 17.7 mph 88 % 0.0 in
02:12 -0.7 °F -2.4 °F 1016.1 in NE 25.9 mph 25.9 mph 88 % 0.0 in
02:18 -0.7 °F -2.4 °F 1016.1 in NNE 13.0 mph 19.3 mph 88 % 0.0 in
02:24 -0.8 °F -2.5 °F 1016.1 in NNE 13.0 mph 25.7 mph 88 % 0.0 in
02:30 -0.8 °F -2.5 °F 1016.1 in NNW 13.0 mph 22.5 mph 88 % 0.0 in
02:36 -0.8 °F -2.5 °F 1016.1 in NE 9.7 mph 17.7 mph 88 % 0.0 in
02:42 -0.9 °F -2.6 °F 1016.1 in NNW 4.7 mph 19.3 mph 88 % 0.0 in
02:48 -0.9 °F -2.6 °F 1015.8 in NW 6.4 mph 14.5 mph 88 % 0.0 in
02:54 -0.9 °F -2.6 °F 1015.8 in NNE 13.0 mph 20.9 mph 88 % 0.0 in
03:00 -0.9 °F -2.6 °F 1015.8 in North 22.7 mph 22.7 mph 88 % 0.0 in
03:06 -0.9 °F -2.8 °F 1015.8 in NE 14.3 mph 16.1 mph 87 % 0.0 in
03:12 -0.9 °F -2.8 °F 1015.8 in NNE 11.1 mph 24.1 mph 87 % 0.0 in
03:20 -0.9 °F -2.8 °F 1015.8 in North 7.9 mph 19.3 mph 87 % 0.0 in
03:26 -0.9 °F -2.8 °F 1015.8 in NNW 7.9 mph 20.9 mph 87 % 0.0 in
03:32 -1.0 °F -2.9 °F 1015.8 in NE 16.3 mph 19.3 mph 87 % 0.0 in
03:38 -1.0 °F -2.9 °F 1015.5 in NW 4.7 mph 16.1 mph 87 % 0.0 in
03:44 -1.0 °F -2.9 °F 1015.5 in NNW 14.3 mph 19.3 mph 87 % 0.0 in
03:50 -1.1 °F -3.0 °F 1015.5 in NNW 7.9 mph 19.3 mph 87 % 0.0 in
03:56 -1.1 °F -3.0 °F 1015.5 in NNE 16.3 mph 19.3 mph 87 % 0.0 in
04:02 -1.2 °F -3.1 °F 1015.5 in NNW 4.7 mph 17.7 mph 87 % 0.0 in
04:08 -1.2 °F -3.1 °F 1015.5 in NNW 6.4 mph 14.5 mph 87 % 0.0 in
04:14 -1.3 °F -3.2 °F 1015.1 in NNW 6.4 mph 14.5 mph 87 % 0.0 in
04:20 -1.3 °F -3.0 °F 1015.1 in NNE 7.9 mph 14.5 mph 88 % 0.0 in
04:26 -1.4 °F -3.3 °F 1015.1 in NNE 4.7 mph 17.7 mph 87 % 0.0 in
04:32 -1.4 °F -3.1 °F 1015.1 in NNW 6.4 mph 12.9 mph 88 % 0.0 in
04:38 -1.4 °F -3.1 °F 1015.1 in North 13.0 mph 17.7 mph 88 % 0.0 in
04:44 -1.5 °F -3.2 °F 1015.1 in NNW 9.7 mph 11.3 mph 88 % 0.0 in
04:50 -1.6 °F -3.3 °F 1015.1 in North 11.1 mph 16.1 mph 88 % 0.0 in
04:56 -1.6 °F -3.3 °F 1015.1 in NNE 11.1 mph 19.3 mph 88 % 0.0 in
05:03 -1.7 °F -3.4 °F 1015.1 in North 6.4 mph 17.7 mph 88 % 0.0 in
05:09 -1.7 °F -3.3 °F 1015.1 in North 11.1 mph 16.1 mph 89 % 0.0 in
05:15 -1.7 °F -3.3 °F 1015.1 in NW 7.9 mph 22.5 mph 89 % 0.0 in
05:21 -1.7 °F -3.4 °F 1015.1 in NNE 13.0 mph 22.5 mph 88 % 0.0 in
05:27 -1.7 °F -3.4 °F 1015.1 in North 13.0 mph 17.7 mph 88 % 0.0 in
05:33 -1.7 °F -3.4 °F 1015.1 in NW 11.1 mph 19.3 mph 88 % 0.0 in
05:39 -1.7 °F -3.4 °F 1015.1 in North 14.3 mph 17.7 mph 88 % 0.0 in
05:45 -1.7 °F -3.4 °F 1015.1 in North 6.4 mph 20.9 mph 88 % 0.0 in
06:03 -1.8 °F -3.4 °F 1015.1 in NNE 4.7 mph 12.9 mph 89 % 0.0 in
06:09 -1.8 °F -3.4 °F 1015.1 in North 9.7 mph 12.9 mph 89 % 0.0 in
06:15 -1.9 °F -3.5 °F 1015.1 in NNW 11.1 mph 14.5 mph 89 % 0.0 in
06:21 -1.9 °F -3.5 °F 1015.1 in North 9.7 mph 17.7 mph 89 % 0.0 in
06:27 -2.0 °F -3.6 °F 1015.1 in North 11.1 mph 25.7 mph 89 % 0.0 in
06:33 -2.0 °F -3.6 °F 1015.1 in NE 7.9 mph 19.3 mph 89 % 0.0 in
06:39 -2.1 °F -3.7 °F 1015.1 in NNE 7.9 mph 20.9 mph 89 % 0.0 in
06:45 -2.1 °F -3.7 °F 1015.1 in NE 7.9 mph 12.9 mph 89 % 0.0 in
06:51 -2.1 °F -3.7 °F 1015.1 in NNE 25.9 mph 25.9 mph 89 % 0.0 in
06:57 -2.1 °F -3.7 °F 1015.1 in NE 14.3 mph 19.3 mph 89 % 0.0 in
07:03 -2.2 °F -3.8 °F 1015.1 in North 4.7 mph 12.9 mph 89 % 0.0 in
07:09 -2.2 °F -3.8 °F 1015.1 in North 3.2 mph 20.9 mph 89 % 0.0 in
07:15 -2.2 °F -3.8 °F 1014.8 in NNW 20.9 mph 20.9 mph 89 % 0.0 in
07:21 -2.2 °F -3.8 °F 1014.8 in NNE 4.7 mph 17.7 mph 89 % 0.0 in
07:27 -2.2 °F -3.8 °F 1014.8 in North 4.7 mph 19.3 mph 89 % 0.0 in
07:33 -2.2 °F -3.9 °F 1014.8 in NNE 6.4 mph 14.5 mph 88 % 0.0 in
07:39 -2.3 °F -4.0 °F 1014.8 in North 11.1 mph 11.3 mph 88 % 0.0 in
07:45 -2.3 °F -4.0 °F 1014.8 in NNW 14.3 mph 22.5 mph 88 % 0.0 in
07:51 -2.2 °F -3.9 °F 1014.8 in NNW 13.0 mph 22.5 mph 88 % 0.0 in
07:57 -2.2 °F -3.9 °F 1014.8 in NNW 7.9 mph 14.5 mph 88 % 0.0 in
08:03 -2.2 °F -3.9 °F 1014.8 in NE 4.7 mph 12.9 mph 88 % 0.0 in
08:09 -2.2 °F -3.9 °F 1014.8 in North 9.7 mph 14.5 mph 88 % 0.0 in
08:15 -2.2 °F -3.9 °F 1014.8 in NNE 14.3 mph 22.5 mph 88 % 0.0 in
08:21 -2.2 °F -3.9 °F 1014.8 in North 13.0 mph 13.0 mph 88 % 0.0 in
08:27 -2.1 °F -3.8 °F 1015.1 in NNE 6.4 mph 17.7 mph 88 % 0.0 in
08:33 -2.1 °F -4.0 °F 1014.8 in NNE 11.1 mph 12.9 mph 87 % 0.0 in
08:39 -1.9 °F -3.8 °F 1015.1 in NNE 17.7 mph 19.3 mph 87 % 0.0 in
08:47 -1.8 °F -3.7 °F 1014.8 in North 14.3 mph 19.3 mph 87 % 0.0 in
08:53 -1.7 °F -3.6 °F 1015.1 in NE 4.7 mph 12.9 mph 87 % 0.0 in
08:59 -1.7 °F -3.7 °F 1015.1 in NNE 19.5 mph 25.7 mph 86 % 0.0 in
09:05 -1.6 °F -3.6 °F 1015.1 in NE 13.0 mph 20.9 mph 86 % 0.0 in
09:11 -1.5 °F -3.5 °F 1015.1 in North 14.3 mph 24.1 mph 86 % 0.0 in
09:17 -1.4 °F -3.4 °F 1015.1 in NNW 16.3 mph 27.4 mph 86 % 0.0 in
09:23 -1.3 °F -3.5 °F 1014.8 in NE 9.7 mph 22.5 mph 85 % 0.0 in
09:29 -1.2 °F -3.4 °F 1014.8 in North 11.1 mph 16.1 mph 85 % 0.0 in
09:35 -1.1 °F -3.5 °F 1014.8 in North 17.7 mph 22.5 mph 84 % 0.0 in
09:41 -1.0 °F -3.5 °F 1014.8 in NNE 6.4 mph 27.4 mph 83 % 0.0 in
09:47 -0.9 °F -3.4 °F 1014.8 in NE 13.0 mph 25.7 mph 83 % 0.0 in
09:53 -0.8 °F -3.5 °F 1014.8 in NNW 6.4 mph 19.3 mph 82 % 0.0 in
10:01 -0.7 °F -3.6 °F 1014.8 in NW 3.2 mph 24.1 mph 81 % 0.0 in
10:07 -0.6 °F -3.5 °F 1014.8 in NNE 13.0 mph 24.1 mph 81 % 0.0 in
10:13 -0.6 °F -3.5 °F 1014.8 in ENE 11.1 mph 19.3 mph 81 % 0.0 in
10:19 -0.4 °F -3.3 °F 1014.8 in NE 13.0 mph 22.5 mph 81 % 0.0 in
10:25 -0.4 °F -3.4 °F 1014.8 in NNE 7.9 mph 20.9 mph 80 % 0.0 in
10:31 -0.2 °F -3.4 °F 1014.8 in NE 20.9 mph 29.0 mph 79 % 0.0 in
10:37 -0.2 °F -3.4 °F 1014.8 in North 13.0 mph 29.0 mph 79 % 0.0 in
10:43 -0.1 °F -3.3 °F 1014.8 in North 11.1 mph 25.7 mph 79 % 0.0 in
10:49 0.2 °F -3.2 °F 1014.8 in NNE 25.9 mph 25.9 mph 78 % 0.0 in
10:55 0.2 °F -3.2 °F 1014.8 in North 17.7 mph 19.3 mph 78 % 0.0 in
11:01 0.4 °F -3.2 °F 1014.8 in WNW 3.2 mph 22.5 mph 77 % 0.0 in
11:07 0.5 °F -3.1 °F 1014.4 in North 13.0 mph 24.1 mph 77 % 0.0 in
11:13 0.5 °F -3.2 °F 1014.4 in ENE 14.3 mph 25.7 mph 76 % 0.0 in
11:19 0.7 °F -3.2 °F 1014.4 in NE 6.4 mph 25.7 mph 75 % 0.0 in
11:25 0.8 °F -2.9 °F 1014.4 in North 11.1 mph 16.1 mph 76 % 0.0 in
11:31 0.9 °F -3.4 °F 1014.4 in NE 22.7 mph 33.8 mph 73 % 0.0 in
11:37 1.0 °F -3.1 °F 1014.4 in NNE 17.7 mph 22.5 mph 74 % 0.0 in
11:43 1.1 °F -3.4 °F 1014.4 in North 22.7 mph 30.6 mph 72 % 0.0 in
11:49 1.2 °F -3.1 °F 1014.4 in NNE 9.7 mph 20.9 mph 73 % 0.0 in
12:01 1.3 °F -3.4 °F 1014.4 in North 17.7 mph 32.2 mph 71 % 0.0 in
12:07 1.4 °F -3.5 °F 1014.4 in NE 20.9 mph 33.8 mph 70 % 0.0 in
12:13 1.5 °F -3.2 °F 1014.4 in NNE 9.7 mph 22.5 mph 71 % 0.0 in
12:19 1.7 °F -3.2 °F 1014.4 in ENE 7.9 mph 32.2 mph 70 % 0.0 in
12:25 1.8 °F -3.5 °F 1014.1 in NNE 22.7 mph 27.4 mph 68 % 0.0 in
12:31 1.9 °F -3.4 °F 1014.1 in NE 17.7 mph 27.4 mph 68 % 0.0 in
12:37 2.0 °F -3.5 °F 1014.1 in NE 17.7 mph 27.4 mph 67 % 0.0 in
12:43 2.2 °F -3.1 °F 1013.8 in NE 14.3 mph 30.6 mph 68 % 0.0 in
12:49 2.3 °F -3.2 °F 1013.8 in NNE 27.4 mph 32.2 mph 67 % 0.0 in
12:55 2.2 °F -3.3 °F 1013.8 in NNW 20.9 mph 35.4 mph 67 % 0.0 in
13:02 2.3 °F -3.0 °F 1013.8 in NE 13.0 mph 22.5 mph 68 % 0.0 in
13:08 2.6 °F -2.9 °F 1014.1 in NW 7.9 mph 24.1 mph 67 % 0.0 in
13:13 2.7 °F -2.8 °F 1014.1 in NE 6.4 mph 17.7 mph 67 % 0.0 in
13:19 2.8 °F -3.3 °F 1013.8 in East 9.7 mph 35.4 mph 64 % 0.0 in
13:26 2.8 °F -3.3 °F 1013.8 in ENE 14.3 mph 32.2 mph 64 % 0.0 in
13:31 2.9 °F -2.6 °F 1013.8 in NNW 7.9 mph 20.9 mph 67 % 0.0 in
13:38 2.9 °F -2.8 °F 1013.8 in NW 24.1 mph 27.4 mph 66 % 0.0 in
13:44 3.0 °F -2.9 °F 1013.8 in NNE 17.7 mph 22.5 mph 65 % 0.0 in
13:50 2.9 °F -3.0 °F 1013.8 in NNW 17.7 mph 22.5 mph 65 % 0.0 in
13:56 3.1 °F -2.8 °F 1013.4 in North 24.1 mph 29.0 mph 65 % 0.0 in
14:01 3.1 °F -3.3 °F 1013.4 in NNE 20.9 mph 33.8 mph 63 % 0.0 in
14:07 3.3 °F -2.9 °F 1013.4 in NNE 16.3 mph 32.2 mph 64 % 0.0 in
14:14 3.3 °F -3.3 °F 1013.4 in NNE 19.5 mph 30.6 mph 62 % 0.0 in
14:20 3.2 °F -3.8 °F 1013.4 in NNE 20.9 mph 37.0 mph 60 % 0.0 in
14:26 3.3 °F -2.9 °F 1013.4 in NNE 27.4 mph 33.8 mph 64 % 0.0 in
14:32 3.3 °F -3.1 °F 1013.4 in North 25.9 mph 33.8 mph 63 % 0.0 in
14:38 3.3 °F -3.5 °F 1013.4 in NNW 16.3 mph 35.4 mph 61 % 0.0 in
14:43 3.4 °F -3.0 °F 1013.1 in ENE 19.5 mph 22.5 mph 63 % 0.0 in
14:49 3.4 °F -3.4 °F 1013.1 in NW 13.0 mph 40.2 mph 61 % 0.0 in
14:56 3.5 °F -3.1 °F 1013.1 in NNW 14.3 mph 33.8 mph 62 % 0.0 in
15:02 3.5 °F -2.9 °F 1013.1 in ENE 22.7 mph 29.0 mph 63 % 0.0 in
15:08 3.6 °F -2.8 °F 1013.1 in NNE 14.3 mph 30.6 mph 63 % 0.0 in
15:14 3.7 °F -2.7 °F 1013.1 in ENE 11.1 mph 33.8 mph 63 % 0.0 in
15:20 3.7 °F -2.3 °F 1013.1 in NE 19.5 mph 19.5 mph 65 % 0.0 in
15:26 3.6 °F -3.4 °F 1013.1 in NNE 24.1 mph 33.8 mph 60 % 0.0 in
15:32 3.7 °F -2.7 °F 1012.8 in NNE 24.1 mph 27.4 mph 63 % 0.0 in
15:37 3.6 °F -3.4 °F 1012.8 in NE 11.1 mph 29.0 mph 60 % 0.0 in
15:44 3.7 °F -2.7 °F 1013.1 in NNE 28.8 mph 29.0 mph 63 % 0.0 in
15:49 3.6 °F -2.8 °F 1012.8 in NNE 24.1 mph 32.2 mph 63 % 0.0 in
15:55 3.6 °F -3.7 °F 1013.1 in NE 27.4 mph 33.8 mph 59 % 0.0 in
16:02 3.7 °F -3.1 °F 1013.1 in NE 17.7 mph 22.5 mph 61 % 0.0 in
16:07 3.8 °F -2.6 °F 1013.1 in NNW 7.9 mph 32.2 mph 63 % 0.0 in
16:14 3.8 °F -2.8 °F 1013.1 in NNE 17.7 mph 32.2 mph 62 % 0.0 in
16:20 3.6 °F -2.8 °F 1013.1 in NE 19.5 mph 29.0 mph 63 % 0.0 in
16:26 3.6 °F -2.8 °F 1013.1 in NNE 19.5 mph 29.0 mph 63 % 0.0 in
16:32 3.5 °F -2.9 °F 1012.8 in NE 20.9 mph 20.9 mph 63 % 0.0 in
16:38 3.5 °F -2.9 °F 1013.1 in NE 25.9 mph 33.8 mph 63 % 0.0 in
16:44 3.5 °F -3.1 °F 1013.1 in NNW 9.7 mph 29.0 mph 62 % 0.0 in
16:50 3.4 °F -3.9 °F 1013.1 in NNE 16.3 mph 30.6 mph 59 % 0.0 in
16:56 3.4 °F -3.9 °F 1013.1 in NNE 20.9 mph 30.6 mph 59 % 0.0 in
17:02 3.3 °F -3.7 °F 1013.1 in NNE 14.3 mph 20.9 mph 60 % 0.0 in
17:08 3.3 °F -3.9 °F 1013.1 in NNE 14.3 mph 32.2 mph 59 % 0.0 in
17:14 3.3 °F -3.7 °F 1013.1 in NE 24.1 mph 29.0 mph 60 % 0.0 in
17:20 3.2 °F -4.0 °F 1013.1 in NE 17.7 mph 32.2 mph 59 % 0.0 in
17:26 3.1 °F -4.1 °F 1013.1 in NW 11.1 mph 32.2 mph 59 % 0.0 in
17:32 3.1 °F -3.9 °F 1013.1 in NNE 20.9 mph 30.6 mph 60 % 0.0 in
17:38 2.9 °F -4.1 °F 1013.1 in NE 25.9 mph 30.6 mph 60 % 0.0 in
17:44 2.9 °F -4.1 °F 1013.1 in NE 25.9 mph 32.2 mph 60 % 0.0 in
17:50 2.9 °F -3.9 °F 1013.4 in NE 7.9 mph 25.7 mph 61 % 0.0 in
17:56 2.8 °F -4.0 °F 1013.4 in NNE 13.0 mph 25.7 mph 61 % 0.0 in
18:02 2.7 °F -4.3 °F 1013.4 in NE 14.3 mph 27.4 mph 60 % 0.0 in
18:08 2.6 °F -3.9 °F 1013.4 in NNE 11.1 mph 27.4 mph 62 % 0.0 in
18:14 2.5 °F -4.0 °F 1013.4 in NE 7.9 mph 27.4 mph 62 % 0.0 in
18:20 2.4 °F -4.1 °F 1013.4 in North 13.0 mph 29.0 mph 62 % 0.0 in
18:26 2.4 °F -4.1 °F 1013.4 in North 11.1 mph 27.4 mph 62 % 0.0 in
18:32 2.3 °F -4.2 °F 1013.4 in NE 11.1 mph 27.4 mph 62 % 0.0 in
18:38 2.2 °F -4.3 °F 1013.4 in NE 20.9 mph 27.4 mph 62 % 0.0 in
18:44 2.1 °F -4.2 °F 1013.4 in NNE 11.1 mph 25.7 mph 63 % 0.0 in
18:50 2.0 °F -4.3 °F 1013.4 in NNW 13.0 mph 24.1 mph 63 % 0.0 in
18:56 2.0 °F -4.5 °F 1013.4 in NE 32.0 mph 32.2 mph 62 % 0.0 in
19:02 1.9 °F -4.4 °F 1013.8 in North 11.1 mph 20.9 mph 63 % 0.0 in
19:08 1.9 °F -4.4 °F 1013.8 in NNW 16.3 mph 20.9 mph 63 % 0.0 in
19:14 2.1 °F -4.4 °F 1013.8 in North 6.4 mph 20.9 mph 62 % 0.0 in
19:20 2.0 °F -4.3 °F 1013.8 in NNE 9.7 mph 19.3 mph 63 % 0.0 in
19:26 2.1 °F -4.6 °F 1013.8 in NNE 6.4 mph 25.7 mph 61 % 0.0 in
19:32 2.1 °F -4.4 °F 1013.8 in NE 20.9 mph 20.9 mph 62 % 0.0 in
19:38 2.1 °F -4.4 °F 1013.8 in NE 11.1 mph 20.9 mph 62 % 0.0 in
19:44 2.1 °F -4.4 °F 1013.8 in NNE 13.0 mph 25.7 mph 62 % 0.0 in
19:50 2.1 °F -4.4 °F 1013.8 in NE 9.7 mph 20.9 mph 62 % 0.0 in
19:56 2.1 °F -4.6 °F 1014.1 in North 7.9 mph 29.0 mph 61 % 0.0 in
20:02 2.1 °F -4.6 °F 1014.1 in NNE 24.1 mph 30.6 mph 61 % 0.0 in
20:08 2.1 °F -4.6 °F 1014.1 in NE 9.7 mph 27.4 mph 61 % 0.0 in
20:14 2.1 °F -4.6 °F 1014.1 in NE 13.0 mph 22.5 mph 61 % 0.0 in
20:20 2.0 °F -4.5 °F 1014.1 in NE 28.8 mph 29.0 mph 62 % 0.0 in
20:26 2.0 °F -4.7 °F 1013.8 in North 11.1 mph 24.1 mph 61 % 0.0 in
20:32 1.9 °F -4.8 °F 1013.8 in NNE 20.9 mph 24.1 mph 61 % 0.0 in
20:38 1.9 °F -4.8 °F 1013.8 in NNE 7.9 mph 27.4 mph 61 % 0.0 in
20:44 1.9 °F -4.8 °F 1013.8 in NNW 4.7 mph 19.3 mph 61 % 0.0 in
20:50 1.9 °F -4.8 °F 1013.8 in NNE 13.0 mph 25.7 mph 61 % 0.0 in
20:56 1.9 °F -4.6 °F 1013.8 in NNE 22.7 mph 25.7 mph 62 % 0.0 in
21:02 1.8 °F -4.7 °F 1013.8 in NNE 17.7 mph 24.1 mph 62 % 0.0 in
21:08 1.8 °F -4.9 °F 1013.8 in ENE 19.5 mph 25.7 mph 61 % 0.0 in
21:14 1.8 °F -4.9 °F 1013.8 in NE 16.3 mph 24.1 mph 61 % 0.0 in
21:20 1.8 °F -4.7 °F 1013.8 in NE 19.5 mph 19.5 mph 62 % 0.0 in
21:26 1.8 °F -4.9 °F 1013.8 in ENE 14.3 mph 22.5 mph 61 % 0.0 in
21:32 1.8 °F -5.1 °F 1013.8 in NE 16.3 mph 32.2 mph 60 % 0.0 in
21:38 1.8 °F -5.4 °F 1013.8 in NNE 16.3 mph 29.0 mph 59 % 0.0 in
21:44 1.8 °F -5.1 °F 1013.8 in NE 7.9 mph 19.3 mph 60 % 0.0 in
21:50 1.7 °F -5.2 °F 1013.8 in NE 14.3 mph 22.5 mph 60 % 0.0 in
21:56 1.8 °F -5.4 °F 1013.8 in NE 13.0 mph 27.4 mph 59 % 0.0 in
22:02 1.8 °F -5.4 °F 1013.8 in NNE 19.5 mph 24.1 mph 59 % 0.0 in
22:08 1.7 °F -5.5 °F 1013.8 in NNE 9.7 mph 27.4 mph 59 % 0.0 in
22:14 1.7 °F -5.5 °F 1013.8 in NE 20.9 mph 29.0 mph 59 % 0.0 in
22:20 1.7 °F -5.5 °F 1013.8 in NNE 19.5 mph 25.7 mph 59 % 0.0 in
22:26 1.7 °F -5.2 °F 1013.8 in NE 9.7 mph 24.1 mph 60 % 0.0 in
22:32 1.7 °F -5.2 °F 1013.8 in NNE 24.1 mph 32.2 mph 60 % 0.0 in
22:38 1.7 °F -5.5 °F 1013.8 in NE 11.1 mph 30.6 mph 59 % 0.0 in
22:44 1.7 °F -5.5 °F 1013.8 in NE 20.9 mph 20.9 mph 59 % 0.0 in
22:50 1.6 °F -5.3 °F 1013.8 in NE 20.9 mph 32.2 mph 60 % 0.0 in
22:56 1.6 °F -5.6 °F 1013.8 in NE 16.3 mph 24.1 mph 59 % 0.0 in
23:02 1.6 °F -5.6 °F 1013.8 in NE 25.9 mph 29.0 mph 59 % 0.0 in
23:08 1.6 °F -5.8 °F 1013.8 in NNE 17.7 mph 27.4 mph 58 % 0.0 in
23:14 1.6 °F -5.6 °F 1013.8 in NE 19.5 mph 24.1 mph 59 % 0.0 in
23:20 1.6 °F -5.6 °F 1013.8 in SSW 3.2 mph 25.7 mph 59 % 0.0 in
23:26 1.5 °F -5.4 °F 1013.4 in ENE 13.0 mph 19.3 mph 60 % 0.0 in
23:38 1.4 °F -5.3 °F 1013.8 in NE 19.5 mph 20.9 mph 61 % 0.0 in
23:44 1.3 °F -5.2 °F 1013.4 in North 14.3 mph 19.3 mph 62 % 0.0 in
23:50 1.3 °F -5.4 °F 1013.4 in ENE 14.3 mph 29.0 mph 61 % 0.0 in
23:56 1.2 °F -5.1 °F 1013.4 in NNE 17.7 mph 20.9 mph 63 % 0.0 in
Meteo18
Compliments of Weather Underground - 4 mb

Script developed by  Jim McMurry - jmcmurry@mwt.net Adapted for the template by  Wim van der Kuil - Leuven-Template.eu

You find our weather info also at:

European Weather Network

Weather Underground

Equipment we use:

Weather-station
Davis Vue

Weather-program
Meteobridge

Weather-server
Raspberry PI 2 B+

Provider
1 and 1

Davis Vue

Meteobridge

Raspberry PI 2 B+

1 and 1